Time,TemperatureF,DewpointF,PressureIn,WindDirection,WindDirectionDegrees,WindSpeedMPH,WindSpeedGustMPH,Humidity,HourlyPrecipIn,Conditions,Clouds,dailyrainin,SoftwareType,DateUTC
2013-04-26 00:03:00,39.0,35.0,30.35,NW,314,0.0,0.0,87,0.00,,,0.01,,2013-04-26 04:03:00,
2013-04-26 00:12:00,39.0,35.0,30.35,NW,314,0.0,0.0,87,0.00,,,0.01,,2013-04-26 04:12:00,
2013-04-26 00:23:00,38.0,35.0,30.35,NW,314,0.0,0.0,89,0.00,,,0.01,,2013-04-26 04:23:00,
2013-04-26 00:32:00,39.0,36.0,30.35,NE,49,1.0,2.0,89,0.00,,,0.01,,2013-04-26 04:32:00,
2013-04-26 00:43:00,39.0,36.0,30.35,NE,49,1.0,2.0,89,0.00,,,0.01,,2013-04-26 04:43:00,
2013-04-26 00:53:00,38.0,35.0,30.35,East,89,1.0,3.0,89,0.00,,,0.01,,2013-04-26 04:53:00,
2013-04-26 01:02:00,37.0,34.0,30.35,East,89,0.0,2.0,88,0.00,,,0.01,,2013-04-26 05:02:00,
2013-04-26 01:13:00,37.0,34.0,30.35,East,89,0.0,2.0,88,0.00,,,0.01,,2013-04-26 05:13:00,
2013-04-26 01:22:00,37.0,34.0,30.36,East,88,0.0,1.0,87,0.00,,,0.01,,2013-04-26 05:22:00,
2013-04-26 01:32:00,37.0,33.0,30.36,East,88,0.0,0.0,86,0.00,,,0.01,,2013-04-26 05:32:00,
2013-04-26 01:42:00,37.0,33.0,30.36,East,88,0.0,0.0,86,0.00,,,0.01,,2013-04-26 05:42:00,
2013-04-26 01:52:00,37.0,33.0,30.36,East,89,0.0,0.0,86,0.00,,,0.01,,2013-04-26 05:52:00,
2013-04-26 02:02:00,37.0,34.0,30.36,East,89,0.0,0.0,88,0.00,,,0.01,,2013-04-26 06:02:00,
2013-04-26 02:11:00,37.0,34.0,30.36,East,89,0.0,0.0,88,0.00,,,0.01,,2013-04-26 06:11:00,
2013-04-26 02:22:00,36.0,33.0,30.36,East,89,0.0,1.0,90,0.00,,,0.01,,2013-04-26 06:22:00,
2013-04-26 02:32:00,35.0,32.0,30.36,East,88,0.0,1.0,89,0.00,,,0.01,,2013-04-26 06:32:00,
2013-04-26 02:42:00,35.0,32.0,30.36,East,88,0.0,1.0,89,0.00,,,0.01,,2013-04-26 06:42:00,
2013-04-26 02:52:00,35.0,32.0,30.36,East,101,2.0,3.0,90,0.00,,,0.01,,2013-04-26 06:52:00,
2013-04-26 03:01:00,35.0,32.0,30.35,East,101,2.0,3.0,89,0.00,,,0.01,,2013-04-26 07:01:00,
2013-04-26 03:11:00,35.0,32.0,30.35,East,101,2.0,3.0,89,0.00,,,0.01,,2013-04-26 07:11:00,
2013-04-26 03:22:00,34.0,32.0,30.36,East,101,1.0,2.0,91,0.00,,,0.01,,2013-04-26 07:22:00,
2013-04-26 03:32:00,35.0,33.0,30.36,East,101,0.0,2.0,92,0.00,,,0.01,,2013-04-26 07:32:00,
2013-04-26 03:42:00,35.0,33.0,30.36,East,101,0.0,2.0,92,0.00,,,0.01,,2013-04-26 07:42:00,
2013-04-26 03:52:00,35.0,33.0,30.36,East,101,1.0,2.0,91,0.00,,,0.01,,2013-04-26 07:52:00,
2013-04-26 04:02:00,34.0,32.0,30.36,East,101,0.0,1.0,91,0.00,,,0.01,,2013-04-26 08:02:00,
2013-04-26 04:11:00,34.0,32.0,30.36,East,101,0.0,1.0,91,0.00,,,0.01,,2013-04-26 08:11:00,
2013-04-26 04:22:00,33.0,31.0,30.36,East,101,1.0,1.0,93,0.00,,,0.01,,2013-04-26 08:22:00,
2013-04-26 04:32:00,34.0,32.0,30.36,East,101,0.0,2.0,93,0.00,,,0.01,,2013-04-26 08:32:00,
2013-04-26 04:42:00,34.0,32.0,30.36,East,101,0.0,2.0,93,0.00,,,0.01,,2013-04-26 08:42:00,
2013-04-26 04:52:00,33.0,31.0,30.36,East,101,1.0,2.0,93,0.00,,,0.01,,2013-04-26 08:52:00,
2013-04-26 05:01:00,33.0,31.0,30.37,East,101,0.0,1.0,93,0.00,,,0.01,,2013-04-26 09:01:00,
2013-04-26 05:11:00,33.0,31.0,30.37,East,101,0.0,1.0,93,0.00,,,0.01,,2013-04-26 09:11:00,
2013-04-26 05:22:00,33.0,31.0,30.37,East,101,0.0,1.0,93,0.00,,,0.01,,2013-04-26 09:22:00,
2013-04-26 05:33:00,33.0,31.0,30.37,East,101,1.0,1.0,94,0.00,,,0.01,,2013-04-26 09:33:00,
2013-04-26 05:43:00,33.0,31.0,30.37,East,101,1.0,1.0,94,0.00,,,0.01,,2013-04-26 09:43:00,
2013-04-26 05:53:00,33.0,31.0,30.37,East,101,1.0,2.0,93,0.00,,,0.01,,2013-04-26 09:53:00,
2013-04-26 06:03:00,33.0,31.0,30.37,East,101,0.0,1.0,92,0.00,,,0.01,,2013-04-26 10:03:00,
2013-04-26 06:12:00,33.0,31.0,30.37,East,101,0.0,1.0,92,0.00,,,0.01,,2013-04-26 10:12:00,
2013-04-26 06:23:00,33.0,31.0,30.38,East,101,0.0,2.0,92,0.00,,,0.01,,2013-04-26 10:23:00,
2013-04-26 06:33:00,33.0,31.0,30.38,East,101,0.0,1.0,93,0.00,,,0.01,,2013-04-26 10:33:00,
2013-04-26 06:42:00,33.0,31.0,30.38,East,101,0.0,1.0,93,0.00,,,0.01,,2013-04-26 10:42:00,
2013-04-26 06:52:00,33.0,31.0,30.39,East,101,0.0,0.0,93,0.00,,,0.01,,2013-04-26 10:52:00,
2013-04-26 07:02:00,32.0,30.0,30.39,East,101,1.0,2.0,93,0.00,,,0.01,,2013-04-26 11:02:00,
2013-04-26 07:11:00,32.0,30.0,30.39,East,101,1.0,2.0,93,0.00,,,0.01,,2013-04-26 11:11:00,
2013-04-26 07:22:00,33.0,31.0,30.39,East,101,1.0,2.0,94,0.00,,,0.01,,2013-04-26 11:22:00,
2013-04-26 07:32:00,33.0,31.0,30.39,East,101,1.0,3.0,92,0.00,,,0.01,,2013-04-26 11:32:00,
2013-04-26 07:42:00,33.0,31.0,30.39,East,101,1.0,3.0,92,0.00,,,0.01,,2013-04-26 11:42:00,
2013-04-26 07:52:00,34.0,32.0,30.40,East,101,0.0,1.0,91,0.00,,,0.01,,2013-04-26 11:52:00,
2013-04-26 08:01:00,36.0,33.0,30.40,East,101,0.0,1.0,88,0.00,,,0.01,,2013-04-26 12:01:00,
2013-04-26 08:11:00,36.0,33.0,30.40,East,101,0.0,1.0,88,0.00,,,0.01,,2013-04-26 12:11:00,
2013-04-26 08:21:00,37.0,33.0,30.41,East,101,0.0,2.0,85,0.00,,,0.01,,2013-04-26 12:21:00,
2013-04-26 08:32:00,39.0,34.0,30.41,SE,143,1.0,3.0,83,0.00,,,0.01,,2013-04-26 12:32:00,
2013-04-26 08:42:00,39.0,34.0,30.41,SE,143,1.0,3.0,83,0.00,,,0.01,,2013-04-26 12:42:00,
2013-04-26 08:52:00,41.0,34.0,30.41,South,185,3.0,6.0,77,0.00,,,0.01,,2013-04-26 12:52:00,
2013-04-26 09:01:00,43.0,34.0,30.41,SSE,159,3.0,8.0,70,0.00,,,0.01,,2013-04-26 13:01:00,
2013-04-26 09:11:00,43.0,34.0,30.41,SSE,159,3.0,8.0,70,0.00,,,0.01,,2013-04-26 13:11:00,
2013-04-26 09:22:00,45.0,34.0,30.42,South,180,6.0,10.0,65,0.00,,,0.01,,2013-04-26 13:22:00,
2013-04-26 09:32:00,45.0,34.0,30.41,SE,146,7.0,13.0,64,0.00,,,0.01,,2013-04-26 13:32:00,
2013-04-26 09:42:00,45.0,34.0,30.41,SE,146,7.0,13.0,64,0.00,,,0.01,,2013-04-26 13:42:00,
2013-04-26 09:52:00,47.0,34.0,30.41,SSE,158,8.0,12.0,61,0.00,,,0.01,,2013-04-26 13:52:00,
2013-04-26 10:01:00,47.0,34.0,30.40,SE,146,6.0,9.0,60,0.00,,,0.01,,2013-04-26 14:01:00,
2013-04-26 10:11:00,47.0,34.0,30.40,SE,146,6.0,9.0,60,0.00,,,0.01,,2013-04-26 14:11:00,
2013-04-26 10:21:00,48.0,34.0,30.41,South,188,5.0,12.0,58,0.00,,,0.01,,2013-04-26 14:21:00,
2013-04-26 10:32:00,49.0,34.0,30.41,SE,142,5.0,16.0,57,0.00,,,0.01,,2013-04-26 14:32:00,
2013-04-26 10:42:00,49.0,34.0,30.41,SE,142,5.0,16.0,57,0.00,,,0.01,,2013-04-26 14:42:00,
2013-04-26 10:52:00,50.0,34.0,30.41,SE,138,8.0,12.0,55,0.00,,,0.01,,2013-04-26 14:52:00,
2013-04-26 11:01:00,51.0,34.0,30.41,SSE,167,7.0,12.0,53,0.00,,,0.01,,2013-04-26 15:01:00,
2013-04-26 11:12:00,51.0,34.0,30.41,SSE,167,7.0,12.0,53,0.00,,,0.01,,2013-04-26 15:12:00,
2013-04-26 11:22:00,51.0,34.0,30.42,SE,145,7.0,14.0,52,0.00,,,0.01,,2013-04-26 15:22:00,
2013-04-26 11:33:00,52.0,35.0,30.42,SSE,150,6.0,13.0,53,0.00,,,0.01,,2013-04-26 15:33:00,
2013-04-26 11:43:00,52.0,35.0,30.42,SSE,150,6.0,13.0,53,0.00,,,0.01,,2013-04-26 15:43:00,
2013-04-26 11:53:00,52.0,35.0,30.42,SE,145,7.0,14.0,53,0.00,,,0.01,,2013-04-26 15:53:00,
2013-04-26 12:03:00,53.0,36.0,30.41,South,169,8.0,16.0,52,0.00,,,0.01,,2013-04-26 16:03:00,
2013-04-26 12:13:00,53.0,36.0,30.41,South,169,8.0,16.0,52,0.00,,,0.01,,2013-04-26 16:13:00,
2013-04-26 12:23:00,54.0,36.0,30.41,SE,140,7.0,13.0,51,0.00,,,0.00,,2013-04-26 16:23:00,
2013-04-26 12:33:00,54.0,36.0,30.41,SSE,156,6.0,13.0,51,0.00,,,0.00,,2013-04-26 16:33:00,
2013-04-26 12:42:00,54.0,36.0,30.41,SSE,156,6.0,13.0,51,0.00,,,0.00,,2013-04-26 16:42:00,
2013-04-26 12:53:00,55.0,36.0,30.40,South,180,8.0,14.0,49,0.00,,,0.00,,2013-04-26 16:53:00,
2013-04-26 13:02:00,55.0,36.0,30.40,SE,129,10.0,16.0,49,0.00,,,0.00,,2013-04-26 17:02:00,
2013-04-26 13:12:00,55.0,36.0,30.40,SE,129,10.0,16.0,49,0.00,,,0.00,,2013-04-26 17:12:00,
2013-04-26 13:22:00,56.0,37.0,30.40,SSE,149,8.0,13.0,48,0.00,,,0.00,,2013-04-26 17:22:00,
2013-04-26 13:32:00,56.0,37.0,30.40,South,171,6.0,14.0,49,0.00,,,0.00,,2013-04-26 17:32:00,
2013-04-26 13:42:00,56.0,37.0,30.40,South,171,6.0,14.0,49,0.00,,,0.00,,2013-04-26 17:42:00,
2013-04-26 13:52:00,57.0,38.0,30.40,South,189,9.0,18.0,48,0.00,,,0.00,,2013-04-26 17:52:00,
2013-04-26 14:02:00,57.0,37.0,30.40,South,176,12.0,17.0,47,0.00,,,0.00,,2013-04-26 18:02:00,
2013-04-26 14:12:00,57.0,37.0,30.40,South,176,12.0,17.0,47,0.00,,,0.00,,2013-04-26 18:12:00,
2013-04-26 14:22:00,57.0,37.0,30.39,SSE,158,8.0,14.0,47,0.00,,,0.00,,2013-04-26 18:22:00,
2013-04-26 14:33:00,58.0,37.0,30.38,SSE,163,9.0,13.0,46,0.00,,,0.00,,2013-04-26 18:33:00,
2013-04-26 14:42:00,58.0,37.0,30.38,SSE,163,9.0,13.0,46,0.00,,,0.00,,2013-04-26 18:42:00,
2013-04-26 14:52:00,58.0,39.0,30.38,SW,230,7.0,15.0,50,0.00,,,0.00,,2013-04-26 18:52:00,
2013-04-26 15:01:00,58.0,36.0,30.37,SSW,195,7.0,15.0,44,0.00,,,0.00,,2013-04-26 19:01:00,
2013-04-26 15:12:00,58.0,36.0,30.37,SSW,195,7.0,15.0,44,0.00,,,0.00,,2013-04-26 19:12:00,
2013-04-26 15:22:00,58.0,36.0,30.37,SSW,200,11.0,15.0,44,0.00,,,0.00,,2013-04-26 19:22:00,
2013-04-26 15:32:00,58.0,37.0,30.35,South,169,10.0,17.0,46,0.00,,,0.00,,2013-04-26 19:32:00,
2013-04-26 15:42:00,58.0,37.0,30.35,South,169,10.0,17.0,46,0.00,,,0.00,,2013-04-26 19:42:00,
2013-04-26 15:52:00,58.0,38.0,30.35,SSE,159,9.0,16.0,47,0.00,,,0.00,,2013-04-26 19:52:00,
2013-04-26 16:02:00,58.0,38.0,30.35,South,170,8.0,14.0,48,0.00,,,0.00,,2013-04-26 20:02:00,
2013-04-26 16:11:00,58.0,38.0,30.35,South,170,8.0,14.0,48,0.00,,,0.00,,2013-04-26 20:11:00,
2013-04-26 16:22:00,59.0,38.0,30.35,SE,134,8.0,13.0,46,0.00,,,0.00,,2013-04-26 20:22:00,
2013-04-26 16:32:00,59.0,39.0,30.35,SE,140,7.0,16.0,48,0.00,,,0.00,,2013-04-26 20:32:00,
2013-04-26 16:42:00,59.0,39.0,30.35,SE,140,7.0,16.0,48,0.00,,,0.00,,2013-04-26 20:42:00,
2013-04-26 16:52:00,59.0,39.0,30.34,South,190,8.0,14.0,47,0.00,,,0.00,,2013-04-26 20:52:00,
2013-04-26 17:02:00,60.0,39.0,30.33,South,180,5.0,14.0,45,0.00,,,0.00,,2013-04-26 21:02:00,
2013-04-26 17:11:00,60.0,39.0,30.33,South,180,5.0,14.0,45,0.00,,,0.00,,2013-04-26 21:11:00,
2013-04-26 17:22:00,61.0,39.0,30.33,South,182,9.0,18.0,44,0.00,,,0.00,,2013-04-26 21:22:00,
2013-04-26 17:33:00,61.0,38.0,30.32,SSE,164,8.0,13.0,43,0.00,,,0.00,,2013-04-26 21:33:00,
2013-04-26 17:42:00,61.0,38.0,30.32,SSE,164,8.0,13.0,43,0.00,,,0.00,,2013-04-26 21:42:00,
2013-04-26 17:53:00,61.0,38.0,30.32,SSW,192,12.0,19.0,43,0.00,,,0.00,,2013-04-26 21:53:00,
2013-04-26 18:03:00,61.0,39.0,30.32,South,172,6.0,19.0,44,0.00,,,0.00,,2013-04-26 22:03:00,
2013-04-26 18:12:00,61.0,39.0,30.32,South,172,6.0,19.0,44,0.00,,,0.00,,2013-04-26 22:12:00,
2013-04-26 18:23:00,61.0,39.0,30.32,South,178,8.0,16.0,44,0.00,,,0.00,,2013-04-26 22:23:00,
2013-04-26 18:33:00,61.0,37.0,30.32,South,171,9.0,13.0,41,0.00,,,0.00,,2013-04-26 22:33:00,
2013-04-26 18:42:00,61.0,37.0,30.32,South,171,9.0,13.0,41,0.00,,,0.00,,2013-04-26 22:42:00,
2013-04-26 18:52:00,60.0,37.0,30.33,South,182,9.0,15.0,42,0.00,,,0.00,,2013-04-26 22:52:00,
2013-04-26 19:02:00,60.0,37.0,30.32,South,178,8.0,15.0,43,0.00,,,0.00,,2013-04-26 23:02:00,
2013-04-26 19:12:00,60.0,37.0,30.32,South,178,8.0,15.0,43,0.00,,,0.00,,2013-04-26 23:12:00,
2013-04-26 19:21:00,60.0,37.0,30.32,SSE,161,9.0,16.0,42,0.00,,,0.00,,2013-04-26 23:21:00,
2013-04-26 19:32:00,60.0,38.0,30.32,SSW,202,9.0,11.0,44,0.00,,,0.00,,2013-04-26 23:32:00,
2013-04-26 19:42:00,60.0,38.0,30.32,SSW,202,9.0,11.0,44,0.00,,,0.00,,2013-04-26 23:42:00,
2013-04-26 19:52:00,59.0,38.0,30.32,South,190,9.0,16.0,46,0.00,,,0.00,,2013-04-26 23:52:00,
2013-04-26 20:01:00,59.0,39.0,30.32,South,170,7.0,12.0,48,0.00,,,0.00,,2013-04-27 00:01:00,
2013-04-26 20:11:00,59.0,39.0,30.32,South,170,7.0,12.0,48,0.00,,,0.00,,2013-04-27 00:11:00,
2013-04-26 20:21:00,59.0,40.0,30.32,SSW,192,7.0,12.0,49,0.00,,,0.00,,2013-04-27 00:21:00,
2013-04-26 20:32:00,58.0,39.0,30.32,SSW,192,5.0,10.0,50,0.00,,,0.00,,2013-04-27 00:32:00,
2013-04-26 20:42:00,58.0,39.0,30.32,SSW,192,5.0,10.0,50,0.00,,,0.00,,2013-04-27 00:42:00,
2013-04-26 20:52:00,57.0,39.0,30.32,South,175,4.0,8.0,51,0.00,,,0.00,,2013-04-27 00:52:00,
2013-04-26 21:01:00,56.0,39.0,30.32,South,182,3.0,6.0,52,0.00,,,0.00,,2013-04-27 01:01:00,
2013-04-26 21:12:00,56.0,39.0,30.32,South,182,3.0,6.0,52,0.00,,,0.00,,2013-04-27 01:12:00,
2013-04-26 21:21:00,56.0,39.0,30.32,South,174,2.0,5.0,53,0.00,,,0.00,,2013-04-27 01:21:00,
2013-04-26 21:32:00,55.0,39.0,30.33,SSE,163,2.0,5.0,54,0.00,,,0.00,,2013-04-27 01:32:00,
2013-04-26 21:42:00,55.0,39.0,30.33,SSE,163,2.0,5.0,54,0.00,,,0.00,,2013-04-27 01:42:00,
2013-04-26 21:52:00,55.0,39.0,30.33,SSE,163,2.0,3.0,55,0.00,,,0.00,,2013-04-27 01:52:00,
2013-04-26 22:02:00,54.0,39.0,30.34,SSE,163,0.0,2.0,56,0.00,,,0.00,,2013-04-27 02:02:00,
2013-04-26 22:11:00,54.0,39.0,30.34,SSE,163,0.0,2.0,56,0.00,,,0.00,,2013-04-27 02:11:00,
2013-04-26 22:22:00,53.0,39.0,30.34,SE,146,2.0,3.0,58,0.00,,,0.00,,2013-04-27 02:22:00,
2013-04-26 22:32:00,53.0,39.0,30.33,SE,146,0.0,2.0,60,0.00,,,0.00,,2013-04-27 02:32:00,
2013-04-26 22:42:00,53.0,39.0,30.33,SE,146,0.0,2.0,60,0.00,,,0.00,,2013-04-27 02:42:00,
2013-04-26 22:52:00,52.0,39.0,30.33,SE,146,1.0,2.0,61,0.00,,,0.00,,2013-04-27 02:52:00,
2013-04-26 23:02:00,51.0,39.0,30.33,SE,146,1.0,3.0,63,0.00,,,0.00,,2013-04-27 03:02:00,
2013-04-26 23:11:00,51.0,39.0,30.33,SE,146,1.0,3.0,63,0.00,,,0.00,,2013-04-27 03:11:00,
2013-04-26 23:22:00,51.0,40.0,30.33,SE,146,0.0,2.0,65,0.00,,,0.00,,2013-04-27 03:22:00,
2013-04-26 23:33:00,50.0,39.0,30.32,SE,127,2.0,3.0,65,0.00,,,0.00,,2013-04-27 03:33:00,
2013-04-26 23:43:00,50.0,39.0,30.32,SE,127,2.0,3.0,65,0.00,,,0.00,,2013-04-27 03:43:00,
2013-04-26 23:53:00,50.0,39.0,30.32,SE,127,1.0,3.0,65,0.00,,,0.00,,2013-04-27 03:53:00,